Location: Pella
(41.4080°N, 92.9160°W)
Time: 09:31:42
(UTC-05:00)

ASTRO E2 - Visible Passes

Search period start: 04 September 2015 00:00
Search period end: 14 September 2015 00:00
Orbit: 522 x 530 km, 31.4° (Epoch: 02 September)

Date Brightness Start Highest point End Pass type
(mag) Time Alt. Az. Time Alt. Az. Time Alt. Az.
04 Sep 4.7 21:35:52 10° SW 21:37:48 18° SSW 21:37:48 18° SSW visible
05 Sep 4.6 21:21:26 10° SW 21:24:05 18° S 21:24:05 18° S visible
06 Sep 4.6 21:07:00 10° SW 21:09:45 17° S 21:10:20 17° S visible
07 Sep 4.7 20:52:37 10° SW 20:55:14 16° S 20:56:35 14° SSE visible
08 Sep 4.9 20:38:17 10° SW 20:40:41 15° SSW 20:42:51 11° SSE visible
09 Sep 5.1 20:24:00 10° SW 20:26:08 14° SSW 20:28:14 10° SSE visible
10 Sep 5.2 20:09:50 10° SW 20:11:35 12° SSW 20:13:17 10° S visible
11 Sep 5.3 19:55:53 10° SW 19:57:02 11° SSW 19:58:05 10° S visible
